User: anonymous   Login
Location: Arleux
(50.3632°N, 2.8721°E)
Time: 08:31:55
(UTC+00:00)
Language:

LilacSat-2 - Orbit

View from above orbital plane
View from above orbital plane
View from above satellite
View from above satellite

Ground track
Ground track

The orbit data is extracted from the following two-line orbital elements,

1 40908U 15049K   21130.87781029  .00000196  00000-0  14260-4 0  9992
2 40908  97.5047 131.3841 0015104 336.0602  68.6051 15.14400256311545
Epoch (UTC): 10 May 2021 21:04:02
Eccentricity: 0.0015104
inclination: 97.5047°
perigee height: 512 km
apogee height: 533 km
right ascension of ascending node: 131.3841°
argument of perigee: 336.0602°
revolutions per day: 15.14400256
mean anomaly at epoch: 68.6051°
orbit number at epoch: 31154

The dashed part of the orbit path shows where the satellite is in the earth's shadow,  

DLR